Regional Weather Roundup
Issued by NWS Cleveland, OH

Home | Current Version | Previous Version | Graphics & Text | Print | Product List | Glossary On
Versions: 1 2 3 4 5 6 7 8 9 10 11 12 13 14 15 16 17 18 19 20 21 22 23 24 25 26 27 28 29 30 31 32 33 34 35 36 37 38 39 40 41 42 43 44 45 46 47 48 49 50
000
ASUS41 KCLE 241510
RWRCLE
OHIO REGIONAL WEATHER ROUNDUP
NATIONAL WEATHER SERVICE WILMINGTON, OH
1100 AM EDT SUN JUL 24 2016

NOTE: "FAIR" INDICATES FEW OR NO CLOUDS BELOW 12,000 FEET WITH NO
SIGNIFICANT WEATHER AND/OR OBSTRUCTIONS TO VISIBILITY.

OHZ001>008-015>018-024>027-034-035-043-044-241600-
   NORTHWEST OHIO

CITY           SKY/WX    TMP DP  RH WIND       PRES   REMARKS
DEFIANCE       FAIR      81  69  67 SW10      29.99F
FINDLAY        LGT RAIN  81  74  79 W7        30.00R
TOLEDO EXPRESS FAIR      78  74  87 SW10      29.97F
TOLEDO EXEC    FAIR      83  73  72 SW10      29.98S
LIMA           FAIR      81  75  82 S7        30.02S
$$

OHZ009>014-019>023-028>033-038-089-241600-
   NORTHEAST OHIO

CITY           SKY/WX    TMP DP  RH WIND       PRES   REMARKS
CLE-HOPKINS    CLOUDY    89  62  40 S10       30.01S
CLE-LAKEFRONT  FAIR      88  59  37 S10       29.98S
CUY CO. ARPT   CLOUDY    90  63  40 S12       30.01S HX  90
LORAIN-ELYRIA  PTSUNNY   83  67  58 SW8       30.00S
ASHTABULA      FAIR      81  67  62 S8        30.02F
AKRON-CANTON   PTSUNNY   86  66  51 S10       30.03S
WOOSTER        FAIR      84  73  69 SW9       30.03S HX  90
MANSFIELD      PTSUNNY   85  73  67 SW8       30.03S HX  91
YOUNGSTOWN     PTSUNNY   84  62  47 SE6       30.03F
$$

OHZ042-051>053-060>062-070>072-077>081-241600-
  SOUTHWEST OHIO

CITY           SKY/WX    TMP DP  RH WIND       PRES   REMARKS
CINC-COVINGTON PTSUNNY   88  75  65 VRB7      30.04R HX  97
CINC-LUNKEN    FAIR      88  77  69 SW5       30.02S HX 100
HAMILTON       FAIR      90  75  61 SW5       30.03S HX 100
DAYTON         PTSUNNY   85  73  67 SW8       30.04S HX  91
WRIGHT-PAT AFB FAIR      85  75  71 SW7       30.03R HX  94
DAYTON GENERAL FAIR      86  71  60 CALM      30.04R HX  91
WILMINGTON     FAIR      87  75  67 VRB3      30.04R HX  96
$$

OHZ036-037-039>041-045>050-054>059-063>069-073>076-082>088-241600-
  CENTRAL AND SOUTHEAST OHIO

CITY           SKY/WX    TMP DP  RH WIND       PRES   REMARKS
COLUMBUS       PTSUNNY   87  74  64 SW8       30.01S HX  95
OSU AIRPORT    FAIR      88  74  63 SW10      30.02S HX  96
BOLTON FIELD   SUNNY     86  77  74 W6        30.03S HX  97
RICKENBACK AFB FAIR      85  76  73 SW7       30.02F HX  94
NEWARK         FAIR      87  75  67 SW10      30.02S HX  96
MARION         FAIR      85  72  65 W10       30.02S HX  91
LANCASTER      FAIR      87  76  69 VRB6      30.04R HX  97
ZANESVILLE     FAIR      90  73  57 S7        30.03R HX  98
NEW PHILLY     FAIR      91  70  49 VRB7      30.02F HX  96
$$



USA.gov is the U.S. government's official web portal to all federal, state and local government web resources and services.